PST,Max TemperatureF,Mean TemperatureF,Min TemperatureF,Max Dew PointF,MeanDew PointF,Min DewpointF,Max Humidity, Mean Humidity, Min Humidity, Max Sea Level PressureIn, Mean Sea Level PressureIn, Min Sea Level PressureIn, Max VisibilityMiles, Mean VisibilityMiles, Min VisibilityMiles, Max Wind SpeedMPH, Mean Wind SpeedMPH, Max Gust SpeedMPH,PrecipitationIn, CloudCover, Events, WindDirDegrees
2012-11-1,61,46,30,34,28,22,65,47,28,30.09,29.95,29.84,,,,23,10,31,0.00,,,201
2012-11-2,61,43,24,28,25,19,81,54,27,30.18,30.12,30.06,,,,16,5,20,0.00,,,173
2012-11-3,66,51,35,32,27,24,64,45,26,30.23,30.16,30.08,,,,10,4,14,0.00,,,144
2012-11-4,65,49,32,34,29,23,64,46,28,30.43,30.36,30.24,,,,9,4,10,0.00,,,141
2012-11-5,71,51,31,35,30,23,75,52,28,30.45,30.36,30.27,,,,12,4,12,0.00,,,182
2012-11-6,74,53,32,32,29,25,78,47,16,30.29,30.14,30.01,,,,16,5,18,0.00,,,193
2012-11-7,66,51,35,36,31,25,82,53,24,30.00,29.92,29.78,,,,22,9,26,0.00,,,92
2012-11-8,54,44,34,30,27,21,82,55,28,29.75,29.64,29.55,,,,18,5,25,0.00,,,92
2012-11-9,37,32,26,28,24,21,92,74,56,29.82,29.76,29.65,,,,18,6,24,0.06,,,197
2012-11-10,34,25,16,26,21,12,92,78,63,30.23,30.00,29.81,,,,14,5,17,0.01,,,196
2012-11-11,40,26,12,19,14,8,92,63,33,30.42,30.36,30.25,,,,15,8,18,0.00,,,168
2012-11-12,39,30,20,33,27,16,96,77,58,30.42,30.37,30.33,,,,14,4,18,0.01,,,32
2012-11-13,50,40,29,34,30,27,100,70,39,30.35,30.26,30.19,,,,10,4,14,0.00,,,48
2012-11-14,49,40,30,39,34,29,100,81,61,30.31,30.25,30.19,,,,12,5,15,0.01,,,34
2012-11-15,34,31,28,32,31,27,100,96,92,30.30,30.21,30.11,,,,12,3,14,0.00,,,228
2012-11-16,55,43,31,35,31,27,96,64,32,30.10,30.02,29.94,,,,14,4,16,0.00,,,156
2012-11-17,55,43,30,41,35,26,92,72,52,29.92,29.80,29.70,,,,28,10,40,0.12,,,172
2012-11-18,48,38,28,34,27,21,85,65,45,30.06,29.98,29.86,,,,28,8,35,0.00,,,190
2012-11-19,54,44,33,31,29,23,69,55,41,30.11,30.04,29.94,,,,30,14,37,0.00,,,168
2012-11-20,59,54,49,33,30,28,50,41,31,29.96,29.84,29.73,,,,37,21,47,0.00,,,181
2012-11-21,55,39,23,37,30,21,100,69,38,30.33,29.99,29.72,,,,31,13,41,0.04,,,182
2012-11-22,47,32,17,31,24,15,92,73,53,30.50,30.45,30.33,,,,10,2,13,0.00,,,41
2012-11-23,50,35,19,29,26,18,92,69,46,30.46,30.36,30.28,,,,10,3,10,0.00,,,100
2012-11-24,59,43,26,39,29,22,84,59,33,30.26,30.15,30.00,,,,13,5,14,0.01,,,104
2012-11-25,47,39,30,41,34,27,96,77,58,30.22,30.12,30.01,,,,13,7,16,0.09,,,27
2012-11-26,44,34,24,31,26,22,92,77,62,30.27,30.22,30.16,,,,9,4,10,0.00,,,23
2012-11-27,34,25,16,29,23,14,100,91,82,30.31,30.24,30.18,,,,8,2,9,0.00,,,325
2012-11-28,42,30,17,33,26,17,96,86,75,30.18,30.04,29.94,,,,16,4,21,0.02,,,127
2012-11-29,57,47,37,35,32,30,82,60,38,29.99,29.87,29.65,,,,29,14,36,0.00,,,142
2012-11-30,55,48,40,39,35,31,76,59,41,29.78,29.70,29.60,,,,28,17,35,0.01,,,170